Terug naar catalogus

ONEWEB-0335

ActiefCommunicatiePO
NORAD 49201·PAYLOAD·🇬🇧 United Kingdom

Gelanceerd Sep 14, 2021 vanaf Baikonur Cosmodrome

Loading…

Volgende Passages (komende 24 uur)

TLE

VersSource: CelesTrak SupGP

Epoch: Sep 14, 2026, 15:58 UTC

1 49201C 21083R   26257.66544398 -.00000230  00000+0 -63129-3 0  2574
2 49201  87.8922 302.4294 0001999 101.2962   1.2763 13.13474325    10

Volg ONEWEB-0335 in realtime met AllMySat

Download on the App Store